Location: Bronnegerveen
(52.9548°N, 6.8388°E)
Time: 01:39:13
(UTC+00:00)

ATLAS 2AS CENTAUR R/B - Pass Details

Date: 15 June 2025
Orbit: 1040 x 1170 km, 63.7° (Epoch: 07 July)

Event Time Altitude Azimuth Distance (km) Brightness Sun altitude
Exits shadow 01:12:28 - 237° (WSW) 3,275 4.7 -10.7°
Reaches altitude 10° 01:13:17 10° 238° (WSW) 2,986 4.5 -10.7°
Maximum altitude 01:20:22 70° 322° (NW) 1,157 3.0 -10.2°
Drops below altitude 10° 01:27:15 10° 46° (NE) 2,904 6.3 -9.8°
Sets 01:29:53 0° 49° (NE) 3,847 7.1 -9.6°
